Location: Martley
(52.2333°N, 2.3667°W)
Time: 03:24:35
(UTC+00:00)

SJ-12 - Pass Details

Date: 11 December 2019
Orbit: 568 x 586 km, 97.6° (Epoch: 25 January)

Event Time Altitude Azimuth Distance (km) Brightness Sun altitude
Rises 06:00:04 0° 10° (N) 2,822 7.4 -18.3°
Reaches altitude 10° 06:02:15 10° 7° (N) 1,915 6.5 -18.0°
Maximum altitude 06:06:19 55° 289° (WNW) 701 3.9 -17.4°
Drops below altitude 10° 06:10:19 10° 212° (SSW) 1,889 6.4 -16.8°
Sets 06:12:29 0° 208° (SSW) 2,780 7.3 -16.5°
